Terug naar catalogus

STARLINK-4158

ActiefCommunicatieVLEO
NORAD 53027·PAYLOAD·🇺🇸 United States

Gelanceerd Jul 7, 2022 vanaf Cape Canaveral Space Force Station

Loading…

Volgende Passages (komende 24 uur)

TLE

VersSource: CelesTrak SupGP

Epoch: Sep 15, 2026, 02:24 UTC

1 53027C 22076AT  26258.10048611  .00027839  00000+0  79659-3 0  2583
2 53027  53.1577 298.7594 0001334  99.6263 150.0655 15.35380438    10

Volg STARLINK-4158 in realtime met AllMySat

Download on the App Store